Location: Maiden_LMO
(35.5760°N, 81.2120°W)
Time: 13:53:28
(UTC-04:00)

ADEOS II - Visible Passes

Search period start: 23 April 2017 00:00
Search period end: 03 May 2017 00:00
Orbit: 799 x 802 km, 98.4° (Epoch: 21 April)

Date Brightness Start Highest point End Pass type
(mag) Time Alt. Az. Time Alt. Az. Time Alt. Az.
23 Apr 4.8 03:53:06 10° ENE 03:54:49 12° E 03:56:33 10° ESE visible
23 Apr 2.1 05:29:45 10° N 05:34:59 70° WNW 05:40:11 10° SSW visible
24 Apr 2.4 05:03:23 10° NNE 05:08:37 65° ESE 05:13:48 10° S visible
25 Apr 3.5 04:37:21 10° NNE 04:42:09 35° E 04:46:54 10° SSE visible
26 Apr 4.4 04:11:51 10° NE 04:15:35 19° E 04:19:17 10° SE visible
26 Apr 2.5 05:50:29 10° N 05:55:27 43° WNW 06:00:23 10° SW visible
27 Apr 2.0 05:23:53 10° N 05:29:09 79° WNW 05:34:24 10° SSW visible
28 Apr 2.6 04:57:35 10° NNE 05:02:45 57° E 05:07:54 10° S visible
29 Apr 3.7 04:31:38 10° NE 04:36:16 31° E 04:40:53 10° SSE visible
30 Apr 4.5 04:06:18 10° NE 04:09:41 17° E 04:13:03 10° SE visible
30 Apr 2.4 05:44:34 10° N 05:49:38 49° WNW 05:54:40 10° SW visible
01 May 2.1 05:18:01 10° NNE 05:23:19 89° WNW 05:28:34 10° SSW visible
02 May 2.9 04:51:47 10° NNE 04:56:54 50° E 05:01:59 10° S visible
